This is the latest recevied weather packets stored in our database for station/object N5JXS. If no packets are shown the sender has not sent any weather packets the latest 10 day(s).
| Time | Temp. | Humidity | Pressure | Rain* | Wind** | Luminosity | Snow |
|---|---|---|---|---|---|---|---|
| 1788383761 | 26.11° C | 27% | 1023.4 hPa | 0 mm | - | 585 W/m² | - |
| 1788383456 | 27.22° C | 26% | 1023.6 hPa | 0 mm | - | 58 W/m² | - |
| 1788383155 | 28.89° C | 24% | 1023.4 hPa | 0 mm | - | 98 W/m² | - |
| 1788382850 | 27.78° C | 24% | 1023.7 hPa | 0 mm | - | 610 W/m² | - |
| 1788382568 | 28.89° C | 24% | 1023.9 hPa | 0 mm | - | 361 W/m² | - |
| 1788382245 | 28.89° C | 24% | 1024 hPa | 0 mm | - | 103 W/m² | - |
| 1788381945 | 27.78° C | 24% | 1023.7 hPa | 0 mm | - | 660 W/m² | - |
| 1788381640 | 27.78° C | 26% | 1024 hPa | 0 mm | - | 670 W/m² | - |
| 1788381335 | 27.22° C | 26% | 1023.7 hPa | 0 mm | - | 656 W/m² | - |
| 1788381034 | 27.78° C | 25% | 1024.4 hPa | 0 mm | - | 657 W/m² | - |
| 1788380730 | 27.78° C | 25% | 1024.2 hPa | 0 mm | - | 357 W/m² | - |
| 1788380426 | 27.22° C | 26% | 1024.1 hPa | 0 mm | - | 595 W/m² | - |
| 1788380122 | 26.67° C | 27% | 1024.6 hPa | 0 mm | - | 749 W/m² | - |
| 1788379821 | 27.22° C | 27% | 1024.2 hPa | 0 mm | - | 115 W/m² | - |
| 1788379516 | 27.78° C | 25% | 1024.6 hPa | 0 mm | - | 698 W/m² | - |
| 1788379220 | 28.33° C | 25% | 1024.7 hPa | 0 mm | - | 723 W/m² | - |
| 1788378909 | 27.78° C | 28% | 1024.5 hPa | 0 mm | - | 742 W/m² | - |
| 1788378607 | 27.78° C | 26% | 1024.5 hPa | 0 mm | - | 744 W/m² | - |
| 1788378301 | 27.22° C | 27% | 1025 hPa | 0 mm | - | 567 W/m² | - |
| 1788377996 | 27.22° C | 27% | 1024.5 hPa | 0 mm | - | 539 W/m² | - |
| 1788377692 | 26.11° C | 28% | 1024.8 hPa | 0 mm | - | 745 W/m² | - |
| 1788377390 | 25° C | 30% | 1024.8 hPa | 0 mm | - | 351 W/m² | - |
| 1788377089 | 24.44° C | 30% | 1024.8 hPa | 0 mm | - | 128 W/m² | - |
| 1788376788 | 25.56° C | 29% | 1025.1 hPa | 0 mm | - | 144 W/m² | - |
| 1788376484 | 25° C | 30% | 1025 hPa | 0 mm | - | 749 W/m² | - |
* Rain latest hour (hover to see other rain measurements)
** Current wind speed in m/s (hover to see current wind gust speed)